Medicine Lodge, KS

9:45 AM CST on December 14, 2019 (GMT -0600)
Medicine Lodge

Weather History for KP28 - October, 2019

Change the Weather History Date:

Saturday, October 26, 2019

  Actual Average Record
Temperature  
Mean Temperature 47 °F 55 °F  
Max Temperature 66 °F 67 °F 95 °F (1922)
Min Temperature 27 °F 42 °F 24 °F (1957)
Degree Days  
Heating Degree Days 18 11  
Month to date heating degree days 230 178  
Since 1 July heating degree days 230 212  
Cooling Degree Days 0 0  
Month to date cooling degree days 23 37  
Year to date cooling degree days 1837 1768  
Moisture  
Dew Point 30 °F    
Average Humidity 59    
Maximum Humidity 92    
Minimum Humidity 26    
Precipitation  
Precipitation 0.00 in 0.08 in 1.90 in (1918)
Month to date precipitation 1.79 2.45  
Year to date precipitation 30.37 24.90  
Snow  
Snow 0.00 in 0.00 in - ()
Month to date snowfall 0.0 0.0  
Since 1 July snowfall 0.0 0.0  
Since 1 September snowfall 0.0 0.0  
Snow Depth 0.00 in    
Sea Level Pressure  
Sea Level Pressure 29.87 in    
Wind  
Wind Speed 6 mph (SSE)    
Max Wind Speed 15 mph    
Max Gust Speed 22 mph    
T = Trace of Precipitation, MM = Missing Value Source: NWS Daily Summary

Daily Weather History Graph

Daily Weather History Graph

Search for Another Location

Airport or City:

Astronomy

Oct. 26, 2019 Rise Set
Actual Time 7:52 AM CDT 6:43 PM CDT
Civil Twilight 7:25 AM CDT 7:10 PM CDT
Nautical Twilight 6:55 AM CDT 7:40 PM CDT
Astronomical Twilight 6:25 AM CDT 8:10 PM CDT
Moon 5:54 AM CDT (10/26) 6:16 PM CDT (10/26)
Length of Visible Light 11h 44m
Length of Day
10h 50m
Waning Crescent, 3% of the Moon is Illuminated
Oct 26
Waning Crescent
Oct 27
New
Nov 4
First Quarter
Nov 12
Full
Nov 19
Last Quarter

Hourly Weather History & Observations

Time (CDT) Temp. Windchill Dew Point Humidity Pressure Visibility Wind Dir Wind Speed Gust Speed Precip Events Conditions
12:56 AM 32.0 °F - 27.0 °F 82% 30.11 in - Calm Calm - N/A   Unknown
1:56 AM 30.0 °F 24.1 °F 26.1 °F 85% 30.08 in - NW 5.8 mph - N/A   Unknown
2:56 AM 32.0 °F 28.7 °F 27.0 °F 82% 30.05 in - WNW 3.5 mph - N/A   Unknown
3:56 AM 30.0 °F 25.2 °F 26.1 °F 85% 30.03 in - NNW 4.6 mph - N/A   Unknown
4:56 AM 30.0 °F - 27.0 °F 88% 29.99 in - Calm Calm - N/A   Unknown
5:56 AM 28.9 °F 23.9 °F 26.1 °F 89% 29.98 in - NNE 4.6 mph - N/A   Unknown
7:56 AM 27.0 °F 21.6 °F 25.0 °F 92% 29.94 in - NNW 4.6 mph - N/A   Unknown
8:56 AM 32.0 °F 28.7 °F 27.0 °F 82% 29.94 in - North 3.5 mph - N/A   Unknown
9:56 AM 41.0 °F - 32.0 °F 70% 29.92 in - Calm Calm - N/A   Unknown
11:56 AM 55.9 °F - 28.9 °F 36% 29.86 in - South 6.9 mph - N/A   Unknown
12:56 PM 59.0 °F - 26.1 °F 28% 29.82 in - SSE 6.9 mph - N/A   Unknown
1:56 PM 62.1 °F - 28.0 °F 28% 29.78 in - South 12.7 mph 19.6 mph N/A   Unknown
2:56 PM 63.0 °F - 30.0 °F 29% 29.75 in - South 10.4 mph 19.6 mph N/A   Unknown
3:56 PM 64.9 °F - 30.0 °F 27% 29.73 in - South 12.7 mph - N/A   Unknown
5:56 PM 63.0 °F - 28.9 °F 28% 29.72 in - South 9.2 mph - N/A   Unknown
6:56 PM 57.0 °F - 34.0 °F 42% 29.74 in - SSE 6.9 mph - N/A   Unknown
7:56 PM 54.0 °F - 37.9 °F 55% 29.75 in - SE 6.9 mph - N/A   Unknown
8:56 PM 52.0 °F - 37.9 °F 59% 29.75 in - SSE 6.9 mph - N/A   Unknown
9:56 PM 50.0 °F - 37.9 °F 63% 29.75 in - SSE 5.8 mph - N/A   Unknown
10:56 PM 48.0 °F - 37.9 °F 68% 29.75 in - SSE 4.6 mph - N/A   Unknown
11:56 PM 46.0 °F 44.8 °F 37.9 °F 73% 29.75 in - SSE 3.5 mph - N/A   Unknown